This is the latest recevied weather packets stored in our database for station/object N4AR. If no packets are shown the sender has not sent any weather packets the latest 1 day(s).
| Time | Temp. | Humidity | Pressure | Rain* | Wind** | Luminosity | Snow |
|---|---|---|---|---|---|---|---|
| 1778039724 | 19.44° C | 67% | 1015.6 hPa | 0 mm | - | 0 W/m² | - |
| 1778039118 | 19.44° C | 67% | 1015.2 hPa | 0 mm | - | 0 W/m² | - |
| 1778038815 | 19.44° C | 66% | 1015.3 hPa | 0 mm | - | 0 W/m² | - |
| 1778038512 | 20° C | 66% | 1015.4 hPa | 0 mm | - | 0 W/m² | - |
| 1778037301 | 20° C | 65% | 1015.3 hPa | 0 mm | - | 0 W/m² | - |
| 1778036392 | 20.56° C | 64% | 1015.3 hPa | 0 mm | - | 0 W/m² | - |
| 1778036089 | 20.56° C | 65% | 1015.1 hPa | 0 mm | - | 0 W/m² | - |
| 1778035785 | 20.56° C | 65% | 1015.2 hPa | 0 mm | - | 0 W/m² | - |
| 1778035178 | 20.56° C | 64% | 1015.1 hPa | 0 mm | - | 0 W/m² | - |
| 1778034572 | 21.11° C | 64% | 1015.1 hPa | 0 mm | - | 0 W/m² | - |
| 1778034270 | 21.11° C | 63% | 1015.1 hPa | 0 mm | - | 0 W/m² | - |
| 1778033967 | 21.11° C | 63% | 1015.1 hPa | 0 mm | - | 0 W/m² | - |
| 1778033664 | 21.11° C | 63% | 1015.2 hPa | 0 mm | - | 0 W/m² | - |
| 1778033059 | 21.67° C | 62% | 1014.7 hPa | 0 mm | - | 0 W/m² | - |
| 1778032756 | 21.67° C | 61% | 1014.8 hPa | 0 mm | - | 0 W/m² | - |
| 1778032454 | 21.67° C | 61% | 1014.8 hPa | 0 mm | - | 0 W/m² | - |
| 1778032150 | 21.67° C | 59% | 1014.8 hPa | 0 mm | - | 0 W/m² | - |
| 1778031544 | 22.22° C | 59% | 1014.6 hPa | 0 mm | - | 0 W/m² | - |
| 1778031243 | 22.22° C | 58% | 1014.6 hPa | 0 mm | - | 0 W/m² | - |
| 1778030937 | 22.78° C | 57% | 1014.5 hPa | 0 mm | - | 0 W/m² | - |
| 1778030634 | 22.22° C | 57% | 1014.6 hPa | 0 mm | - | 0 W/m² | - |
| 1778030332 | 22.78° C | 57% | 1014.7 hPa | 0 mm | - | 0 W/m² | - |
| 1778030029 | 22.78° C | 56% | 1014.5 hPa | 0 mm | - | 0 W/m² | - |
| 1778029726 | 22.78° C | 55% | 1014.5 hPa | 0 mm | - | 0 W/m² | - |
| 1778029424 | 22.78° C | 54% | 1014.3 hPa | 0 mm | - | 0 W/m² | - |
* Rain latest hour (hover to see other rain measurements)
** Current wind speed in m/s (hover to see current wind gust speed)